Simultaneous Nadir Overpasses (SNOs) Predictions

Prediction of SNOs between GOES-16 and TERRA Satellite Orbit:

Table of predicted SNOs for the next 14.0 days since TLE Epoch: 11/21/2025
Index Date Time (GOES-16) GOES-16 Lat,Lon TERRA Lat,Lon Distance(km) Time Diff (sec)
1 11/22/2025 04:13:42 -0.03,-104.64 -0.30,-105.85 137.44 80
2 11/24/2025 03:51:29 -0.04,-104.63 0.68,-101.14 396.55 80
3 11/24/2025 16:10:51 0.04,-104.68 0.27,-105.86 133.48 80
4 11/26/2025 15:53:57 0.05,-104.68 -0.67,-101.15 401.00 80
5 11/27/2025 04:13:28 -0.05,-104.63 -0.30,-105.90 144.26 80
6 11/29/2025 03:51:14 -0.06,-104.62 0.65,-101.19 390.19 80
7 11/29/2025 16:10:35 0.06,-104.67 0.33,-105.90 140.08 80
8 12/01/2025 15:53:41 0.06,-104.66 -0.65,-101.18 394.56 80
9 12/02/2025 04:13:12 -0.05,-104.61 -0.32,-105.94 150.39 80
10 12/04/2025 03:50:57 -0.06,-104.60 0.62,-101.22 383.58 80
11 12/04/2025 16:10:17 0.06,-104.64 0.35,-105.93 147.31 80
